Location: Molino di Ancona
(43.6167°N, 13.3667°E)
Time: 02:44:20
(UTC+00:00)

ALOS - Pass Details

Date: 15 December 2019
Orbit: 683 x 685 km, 97.8° (Epoch: 25 January)

Event Time Altitude Azimuth Distance (km) Brightness Sun altitude
Rises 04:29:36 0° 13° (NNE) 3,062 5.6 -21.4°
Reaches altitude 10° 04:31:51 10° 14° (NNE) 2,141 4.8 -21.0°
Maximum altitude 04:36:33 86° 100° (E) 693 2.2 -20.1°
Drops below altitude 10° 04:41:13 10° 192° (SSW) 2,124 4.8 -19.3°
Sets 04:43:26 0° 193° (SSW) 3,034 5.6 -18.9°
